Location: *
(35.2348°S, 91.3916°E)
Time: 19:18:32
(UTC+00:00)

Thor Agena Rocket - Pass Details

Date: 23 October 2019
Orbit: 759 x 808 km, 99.0° (Epoch: 10 November)

Event Time Altitude Azimuth Distance (km) Brightness Sun altitude
Exits shadow 14:15:23 35° 117° (ESE) 1,234 4.3 -23.0°
Drops below altitude 10° 14:19:43 10° 175° (S) 2,328 6.3 -23.7°
Sets 14:22:12 0° 183° (S) 3,267 7.3 -24.2°
